Date,TemperatureHighF,TemperatureAvgF,TemperatureLowF,DewpointHighF,DewpointAvgF,DewpointLowF,HumidityHigh,HumidityAvg,HumidityLow,PressureMaxIn,PressureMinIn,WindSpeedMaxMPH,WindSpeedAvgMPH,GustSpeedMaxMPH,PrecipitationSumIn
2014-1-2,21.0,21.0,21.0,-99.9,-99.9,-99.9,59,59,59,0.00,40.00,1,1,0,0.00
2014-1-6,32.0,32.0,32.0,20.0,20.0,20.0,62,62,62,0.00,40.00,5,5,0,0.00
2014-1-7,7.0,7.0,7.0,-12.0,-12.0,-12.0,41,41,41,0.00,40.00,4,4,0,0.00
2014-1-8,10.0,6.3,4.0,3.0,-4.7,-9.0,73,60,51,0.00,40.00,2,1,0,0.00
2014-1-9,10.0,10.0,10.0,5.0,5.0,5.0,81,81,81,0.00,40.00,1,1,0,0.00
2014-1-10,8.0,8.0,8.0,3.0,3.0,3.0,80,80,80,0.00,40.00,0,0,0,0.00
2014-1-12,44.0,43.5,43.0,-99.9,-99.9,-99.9,39,36,33,0.00,40.00,7,6,0,0.00
2014-1-16,42.0,39.6,36.0,40.0,37.6,34.0,93,92,91,0.00,40.00,0,-999,0,0.00
2014-1-21,20.0,20.0,20.0,0.0,-0.5,-1.0,42,40,39,0.00,40.00,0,-999,0,0.00
2014-1-24,4.0,4.0,4.0,-7.0,-7.0,-7.0,62,62,62,0.00,40.00,0,-999,0,0.00
2014-2-6,16.0,16.0,16.0,-99.9,-99.9,-99.9,59,59,59,0.00,40.00,0,-999,0,0.00
2014-2-21,40.0,37.0,34.0,38.0,-31.0,-99.9,92,78,63,0.00,40.00,0,-999,0,0.00
2014-3-7,33.0,33.0,33.0,16.0,16.0,16.0,49,49,49,0.00,40.00,0,-999,0,0.00
2014-3-19,47.0,47.0,47.0,-99.9,-99.9,-99.9,16,16,16,0.00,40.00,0,-999,0,0.00
2014-4-2,30.0,29.0,28.0,27.0,25.5,24.0,88,86,85,0.00,40.00,0,-999,0,0.00
2014-4-4,44.0,38.6,34.0,29.0,28.3,28.0,79,69,55,0.00,40.00,0,-999,0,0.00
2014-4-29,49.0,49.0,49.0,36.0,36.0,36.0,60,60,60,0.00,40.00,0,-999,0,0.00
2014-5-14,58.0,58.0,58.0,-99.9,-99.9,-99.9,0,0,100,0.00,40.00,0,-999,0,0.00
2014-5-15,71.0,71.0,71.0,61.0,61.0,61.0,70,70,70,0.00,40.00,0,-999,0,0.00
2014-6-21,69.0,69.0,69.0,29.0,29.0,29.0,23,23,23,0.00,40.00,0,-999,0,0.00
2014-7-9,73.0,73.0,73.0,66.0,66.0,66.0,78,78,78,0.00,40.00,0,-999,0,0.00